SPIRALE A

Last updated on Aug. 13, 2020, 5:31 a.m. UTC

1 33751U 09008C   20225.87302914  .00000090  00000-0  49640-3 0  9996
2 33751   1.9798 160.8547 5375812  76.7736 335.4170  4.58749552163870
UTC
Height (km)
Latitude
Longitude
Inclination
Orbital Period
UTC large
Height (km)
Speed (km/s)
/
Latitude / Longitude
Inclination (degrees)
Orbital Period (minutes)
Azimuth
Elevation
Range (km)
Doppler Factor
iOS Compass Heading
iOS Angle

Next 30 passes for location: Hong Kong

Rise time Rise Azimuth (degrees) Set time Set Azimuth (degrees) Duration Max altitude (degrees)

No matching passes for this satellites